Regional Weather Roundup
Issued by NWS

Home | Current Version | Previous Version | Text Only | Print | Product List | Glossary On
Versions: 1 2 3 4 5 6 7 8 9 10 11 12 13 14 15 16 17 18 19 20 21 22 23 24 25 26 27 28 29 30 31 32 33 34 35 36 37 38 39 40 41 42 43 44 45 46 47 48 49 50
000
ASUS43 KDTX 291410
RWRMI
MICHIGAN HOURLY REGIONAL WEATHER ROUNDUP
NATIONAL WEATHER SERVICE DETROIT/PONTIAC MI
1000 AM EDT TUE JUL 29 2014

NOTE: "FAIR" INDICATES FEW OR NO CLOUDS BELOW 12,000 FEET WITH NO
SIGNIFICANT WEATHER AND/OR OBSTRUCTION TO VISIBILITY.

MIZ047>049-052>055-059>063-066>070-074>076-081>083-291500-
SOUTHEAST LOWER MICHIGAN

CITY           SKY/WX    TMP DP  RH WIND       PRES   REMARKS
ADRIAN         SUNNY     63  50  62 VRB5      30.04S
ALMA           CLOUDY    58  53  84 SW6       29.99S
ANN ARBOR      MOSUNNY   64  49  57 MISG      30.02R
BAD AXE        CLOUDY    58  55  91 SW5       29.97S
DETROIT CITY   SUNNY     66  48  52 W9        30.01R
DETROIT        MOSUNNY   63  51  65 W8        30.02R
FLINT          MOSUNNY   64  52  64 W6        30.00R
GROSSE ILE     SUNNY     64  52  63 W6        30.01S
HILLSDALE      PTSUNNY   60  51  72 W6        30.04R
HOWELL         MOSUNNY   62  53  72 SW7       30.01S

CITY           SKY/WX    TMP DP  RH WIND       PRES   REMARKS
JACKSON        CLOUDY    60  52  74 W7        30.03R
LAMBERTVILLE   SUNNY     63  52  67 W3        30.03S
LANSING        CLOUDY    56  52  86 MISG      30.02S
LAPEER         NOT AVBL
MASON          CLOUDY    59  51  74 W7        30.02S
MONROE         SUNNY     63  54  72 W5        30.01S
MT. CLEMENS    SUNNY     65  51  59 W10       29.99R
PONTIAC        MOSUNNY   63  50  62 W8        30.00S
PORT HOPE        N/A     59  54  83 SW6       29.94S
PORT HURON     SUNNY     63  54  72 W8        29.99R
TRI CITIES     CLOUDY    61  54  77 W13       29.99R
YPSILANTI      SUNNY     68  50  52 W7        30.02S
$$
MIZ043>046-050>051-056>058-064>065-071>073-077>080-291500-
SOUTHWEST LOWER MICHIGAN

CITY           SKY/WX    TMP DP  RH WIND       PRES   REMARKS
BATTLE CREEK   CLOUDY    60  52  74 W7        30.03F
BENTON HARBOR  CLOUDY    66  56  70 W14       30.03R
BIG RAPIDS     CLOUDY    60  60 100 NW5       29.99S
COLDWATER      CLOUDY    60  53  78 W7        30.04S
HOLLAND        CLOUDY    64  58  80 W9        30.02S
GRAND RAPIDS   PTSUNNY   64  55  72 W14       30.01S
KALAMAZOO      CLOUDY    58  53  84 S5        30.04F
MARSHALL       CLOUDY    60  51  73 W7        30.03S
MUSKEGON       PTSUNNY   65  56  72 N5        30.01S
$$
MIZ016>042-291500-
NORTHERN LOWER MICHIGAN

CITY           SKY/WX    TMP DP  RH WIND       PRES   REMARKS
ALPENA         CLOUDY    61  56  83 NW9       29.92S
BEAVER ISLAND  CLOUDY    57  57  98 NW9       29.96S
BELLAIRE       CLOUDY    63  56  78 NW3       29.95S
CADILLAC       CLOUDY    61  56  84 W6        29.98R
CHARLEVOIX     CLOUDY    61  58  90 NW7       29.98S
FRANKFORT      MOSUNNY   64  56  75 NW6       29.99S
GAYLORD        CLOUDY    59  55  87 NW7       29.95S
GRAYLING       CLOUDY    59  55  85 W7        29.96S
HARBOR SPRINGS PTSUNNY   62  55  78 NW6       29.95R
HOUGHTON LAKE  CLOUDY    60  54  80 W10       29.97S
MANISTEE       MOSUNNY   61  57  88 NW5       30.00S
OSCODA           N/A    N/A N/A N/A MISG        N/A
PELLSTON       CLOUDY    63  56  78 NW10      29.95R
TRAVERSE CITY  CLOUDY    63  55  75 W7        29.96S
$$
MIZ007>008-015-291500-
EASTERN UPPER MICHIGAN

CITY           SKY/WX    TMP DP  RH WIND       PRES   REMARKS
KINROSS        CLOUDY    57  55  94 NW7       29.92F
MACKINAC ISLAN PTSUNNY   58  56  91 W7        29.93S
NEWBERRY       CLOUDY    55  54  95 W8        29.95S
S. S. MARIE    CLOUDY    58  52  80 N6        29.92S
$$
MIZ004>006-011>014-085-291500-
CENTRAL UPPER MICHIGAN

CITY           SKY/WX    TMP DP  RH WIND       PRES   REMARKS
MANISTIQUE     CLOUDY    61  56  83 NW8       29.96S
ESCANABA       MOSUNNY   63  52  67 NW7       29.98F
MENOMINEE      SUNNY     63  54  72 N6        29.99F
SAWYER-GWINN   PTSUNNY   61  54  77 N6        29.99S
$$
MIZ001>003-009>011-084-291500-
WESTERN UPPER MICHIGAN

CITY           SKY/WX    TMP DP  RH WIND       PRES   REMARKS
IRON MOUNTAIN  PTSUNNY   63  53  70 NW7       30.00S
COPPER HARBOR    N/A     59  54  83 N10       29.98R
IRONWOOD       PTSUNNY   61  57  88 W7        30.04S
$$

ABBREVIATIONS USED IN REMARKS
   TC - TEMPERATURE IN CELSIUS
  WCI - WIND CHILL INDEX
   HX - HEAT INDEX
  VSB - VISIBILITY



USA.gov is the U.S. government's official web portal to all federal, state and local government web resources and services.